ARIANE 5 R/B, 41863

Orbit data source: Space-Track

ARIANE 5 R/B, 41863 is space debris originally from a launch on Thu, 17 Nov 2016 UTC launched from the French Guiana (FRGUI). Debris objects in space refer to the collection of defunct objects orbiting the Earth. Examples of debris include non-operational satellites, rocket bodies, and fragments generated from explosions, collisions, or faulty payload assembly.

Loading next visibility...
Identifier
41863, 2016-069E
Orbit
Active
Country
Flag of FRFR
Related business
Manufacturer
ADS/Bremen
Mission
Spacecraft
Bus & Motor
EPS+, AESTUS
Mass
3,057 kg wet, 3,057 kg dry
Launch date (UTC)
2016-11-17 (10 years ago)
Launch vehicle
Unknown
Launch site
French Guiana (FRGUI)
Object type
Payload
Rocket body
Debris
Shape & HBR
Cone + Cyl, 2.7 m
Radar Cross Section
28.860 m², Large (>1 m²)

Expand to show TLE details & history
Last TLE update: 1 month ago

TLE from 1 month ago
0 ARIANE 5 R/B
1 41863U 16069E   26216.15470931 -.00000003  00000-0  00000-0 0  9995
2 41863  55.5191  95.8611 0002910  15.3900 344.6969  1.73306878 61461
Epoch: 2026-08-04T03:42Z
TLE epoch observation values (Epoch: 2026-08-04T03:42:46.884Z)
Latitude
-0°
Longitude
87.45802°
Altitude
22,890.797 km
Speed
3.691 km/s
True Right ascension
06h 23m 31s
True Declination
0° 00' 00"
Sunlit
Object was in daylight at epoch
Visualization orbit readout
Latitude
Unknown
Longitude
Unknown
Altitude
Unknown
Speed
Unknown
Apparent Right ascension
Unknown
Apparent Declination
Unknown
Sunlit
N/A
Visualization observer readout
Local Sidereal Time
07:54:33
Azimuth
Unknown
Elevation
Unknown
Doppler factor
Unknown
Orbital elements
Apogee altitude
22,907.241 km
Perigee altitude
22,890.202 km
Semi-major axis
29,276.859 km
Eccentricity
0.00029
Inclination
55.5191°
RAAN
95.8611°
Arg. of periapsis
15.39°
True anomaly
344.6881°
Mean anomaly
344.6969°
Eccentric anomaly
344.6925°
Mean motion
0.43327 °/min
Orbital period
830.89 mins
BSTAR
0
Loading maneuver chart data...
Computing Atmospheric mass density...
Loading historical data...
Loading historical data...
Loading historical data...
Loading historical data...
Loading historical data...
Loading historical data...
Loading historical data...
Other satellites on launch #69 in the year 2016 (2016-11-17 UTC)

Documentation

Showing up to 5 results
|